FW6834 Weather Reports


Display with metric or nautical units.
time (UTC)temp
F
wind
direction
speed
MPH
gust
MPH
rain 1hr
in
rain 24hr
in
rain mn
in
humidity
%
barometer
mb
20260903215601 96 142 9.0 10.0 0.00 0.00 0.00 44 1050.8
20260903214102 96 122 8.0 13.0 0.00 0.00 0.00 44 1050.8
20260903212602 96 175 10.0 11.0 0.00 0.00 0.00 44 1050.8
20260903211102 97 191 4.0 12.0 0.00 0.00 0.00 43 1050.8
20260903205601 96 121 8.0 12.0 0.00 0.00 0.00 43 1051.1
20260903204102 96 194 9.0 15.0 0.00 0.00 0.00 43 1051.1
20260903202602 97 158 6.0 9.0 0.00 0.00 0.00 44 1051.5
20260903201103 97 125 7.0 11.0 0.00 0.00 0.00 43 1051.5
20260903194602 99 97 6.0 10.0 0.00 0.00 0.00 42 1051.5
20260903192101 98 157 7.0 8.0 0.00 0.00 0.00 42 1051.8
20260903190603 98 132 6.0 9.0 0.00 0.00 0.00 43 1052.2
20260903185102 97 208 7.0 9.0 0.00 0.00 0.00 42 1052.5
20260903183602 97 160 3.0 10.0 0.00 0.00 0.00 44 1052.8
20260903182102 96 117 6.0 10.0 0.00 0.00 0.00 45 1052.8
20260903181102 95 108 6.0 11.0 0.00 0.00 0.00 46 1052.8
20260903174602 94 185 3.0 8.0 0.00 0.00 0.00 48 1053.2
20260903173102 93 129 10.0 10.0 0.00 0.00 0.00 48 1053.5
20260903172102 94 122 9.0 11.0 0.00 0.00 0.00 48 1053.5
20260903170603 93 148 7.0 9.0 0.00 0.00 0.00 48 1053.8
20260903165103 93 146 6.0 10.0 0.00 0.00 0.00 50 1053.8
20260903163602 91 193 6.0 11.0 0.00 0.00 0.00 52 1053.8
20260903162102 90 171 7.0 9.0 0.00 0.00 0.00 53 1053.8
20260903160602 90 218 3.0 9.0 0.00 0.00 0.00 55 1053.8
20260903155102 89 172 7.0 8.0 0.00 0.00 0.00 57 1053.8
20260903153602 88 158 5.0 8.0 0.00 0.00 0.00 58 1054.2
20260903152102 87 218 4.0 9.0 0.00 0.00 0.00 60 1054.2
20260903150602 85 194 6.0 10.0 0.00 0.00 0.00 62 1054.2
20260903145102 85 275 5.0 10.0 0.00 0.00 0.00 63 1054.5
20260903143602 84 170 9.0 10.0 0.00 0.00 0.00 64 1054.5
20260903142102 82 157 4.0 11.0 0.00 0.00 0.00 67 1054.5
20260903140602 82 156 6.0 10.0 0.00 0.00 0.00 68 1054.9
20260903135103 81 148 4.0 10.0 0.00 0.00 0.00 69 1054.9
20260903132102 80 181 4.0 8.0 0.00 0.00 0.00 70 1054.5
20260903130603 79 213 7.0 11.0 0.00 0.00 0.00 72 1054.5
20260903123604 77 169 8.0 10.0 0.00 0.00 0.00 74 1054.2
20260903122305 77 160 7.0 7.0 0.00 0.00 0.00 74 1054.2
20260903120603 77 172 6.0 10.0 0.00 0.00 0.00 74 1053.8
20260903115102 77 170 3.0 9.0 0.00 0.00 0.00 73 1053.8
20260903114102 77 220 6.0 11.0 0.00 0.00 0.00 72 1053.8
20260903112602 78 143 6.0 10.0 0.00 0.00 0.00 72 1053.5
20260903111102 78 181 5.0 8.0 0.00 0.00 0.00 71 1053.8
20260903105602 78 169 5.0 9.0 0.00 0.00 0.00 71 1053.5
20260903101102 79 137 5.0 9.0 0.00 0.00 0.00 68 1053.5
20260903094102 80 69 1.0 9.0 0.00 0.00 0.00 67 1053.5
20260903085603 81 128 6.0 9.0 0.00 0.00 0.00 64 1053.5
20260903082602 82 226 7.0 11.0 0.00 0.00 0.00 63 1053.5
20260903081102 82 170 6.0 8.0 0.00 0.00 0.00 62 1053.5
20260903075603 83 142 7.0 9.0 0.00 0.00 0.00 61 1053.2
20260903074102 83 179 4.0 10.0 0.00 0.00 0.00 60 1053.5
20260903072602 83 131 9.0 13.0 0.00 0.00 0.00 59 1053.5
20260903071103 84 156 6.0 12.0 0.00 0.00 0.00 58 1053.5
20260903065602 84 185 3.0 9.0 0.00 0.00 0.00 58 1053.2
20260903064102 85 181 6.0 7.0 0.00 0.00 0.00 56 1053.5
20260903062602 85 192 8.0 12.0 0.00 0.00 0.00 55 1053.5
20260903055602 86 199 8.0 10.0 0.00 0.00 0.00 53 1053.2
20260903054102 86 186 10.0 13.0 0.00 0.00 0.00 53 1053.2
20260903053102 87 180 6.0 12.0 0.00 0.00 0.00 52 1053.2
20260903051602 87 182 9.0 12.0 0.00 0.00 0.00 50 1053.2
20260903042602 88 171 4.0 13.0 0.00 0.00 0.00 47 1053.2
20260903041102 89 172 9.0 11.0 0.00 0.00 0.00 46 1053.2
20260903034102 90 225 8.0 10.0 0.00 0.00 0.00 44 1053.2
20260903032602 90 141 7.0 11.0 0.00 0.00 0.00 43 1053.2
20260903031102 90 192 7.0 9.0 0.00 0.00 0.00 42 1053.2
20260903025602 91 179 10.0 10.0 0.00 0.00 0.00 41 1053.2
20260903024103 91 122 4.0 6.0 0.00 0.00 0.00 41 1052.8
20260903022602 91 107 4.0 8.0 0.00 0.00 0.00 41 1052.8
20260903021102 92 145 3.0 11.0 0.00 0.00 0.00 40 1052.5
20260903015602 92 139 6.0 7.0 0.00 0.00 0.00 41 1052.5
20260903014601 92 132 4.0 7.0 0.00 0.00 0.00 40 1052.2
20260903013102 93 165 6.0 7.0 0.00 0.00 0.00 39 1052.2
20260903011602 94 171 6.0 8.0 0.00 0.00 0.00 38 1052.2
20260903005102 95 107 4.0 7.0 0.00 0.00 0.00 36 1051.8
20260903003602 97 169 6.0 9.0 0.00 0.00 0.00 35 1051.8
20260903002102 97 161 9.0 10.0 0.00 0.00 0.00 34 1051.8
20260903000603 98 147 5.0 10.0 0.00 0.00 0.00 34 1051.8
20260902235102 99 171 7.0 9.0 0.00 0.00 0.00 33 1051.8
20260902233605 99 197 8.0 9.0 0.00 0.00 0.00 32 1051.8
20260902232102 100 182 8.0 8.0 0.00 0.00 0.00 32 1051.8
20260902230602 100 183 7.0 10.0 0.00 0.00 0.00 31 1051.8
20260902223602 100 148 8.0 10.0 0.00 0.00 0.00 31 1051.8
20260902222102 100 160 4.0 10.0 0.00 0.00 0.00 31 1052.2
20260902221101 101 209 5.0 11.0 0.00 0.00 0.00 30 1052.2